Notices

Please take our survey and provide feedback: https://eccc.sondage-survey.ca/f/LanguageSelection.aspx?s=442ca660-fcf1-47c0-95a9-59707d6fd709

Please note that the IDF dataset is available through this link: Intensity-Duration-Frequency (IDF) Files .

Hourly Data Report for November 09, 2020

MUSKOKA
ONTARIO
Current Station Operator: NAVCAN

44°58'29.000" N
79°18'12.000" W
281.90 m
6115529
71532
YQA

Download Data

Hourly Data (November 2020)
Hourly Data Report for November 9, 2020
TIME
LST
Temp Definition
°C
Dew Point Definition
°C
Rel Hum Definition
%
Precip. Amount Definition
mm

Wind Dir Definition
10's deg

Wind Spd Definition
km/h
Visibility Definition
km
Stn Press Definition
kPa
Hmdx Definition


Wind Chill Definition


Weather Definition


00:00 4.7 4.4 98 LegendMM 14 4 6.4 99.18     Fog
01:00 4.8 4.5 98 LegendMM   0 3.2 99.17     Fog
02:00 7.2 6.8 97 LegendMM LegendMM 4 16.1 99.14     LegendNANA
03:00 7.0 6.6 97 LegendMM 12 5 6.4 99.14     Fog
04:00 9.0 7.6 91 LegendMM 14 8 16.1 99.14     LegendNANA
05:00 9.5 7.1 85 LegendMM 14 8 16.1 99.12     LegendNANA
06:00 7.7 6.7 93 LegendMM 14 5 16.1 99.09     LegendNANA
07:00 9.4 7.4 87 LegendMM 14 5 16.1 99.10     LegendNANA
08:00 11.1 8.0 81 LegendMM 15 11 16.1 99.11     LegendNANA
09:00 12.6 8.3 75 LegendMM 15 9 16.1 99.11     LegendNANA
10:00 14.1 8.3 68 LegendMM 14 8 16.1 99.05     LegendNANA
11:00 16.3 8.8 61 LegendMM 16 15 16.1 99.02     LegendNANA
12:00 18.6 8.9 53 LegendMM 16 15 16.1 98.91     LegendNANA
13:00 21.0 8.9 45 LegendMM 15 15 16.1 98.79     LegendNANA
14:00 21.4 8.5 43 LegendMM 16 18 16.1 98.71     LegendNANA
15:00 22.4 8.1 39 LegendMM 18 18 16.1 98.69     LegendNANA
16:00 20.6 8.1 44 LegendMM 17 13 16.1 98.66     LegendNANA
17:00 18.1 7.9 51 LegendMM 17 13 16.1 98.65     LegendNANA
18:00 15.7 7.5 58 LegendMM 16 13 16.1 98.61     LegendNANA
19:00 14.8 6.7 58 LegendMM 14 13 16.1 98.58     LegendNANA
20:00 13.8 6.5 61 LegendMM 16 13 16.1 98.56     LegendNANA
21:00 12.6 6.7 67 LegendMM 16 15 16.1 98.53     LegendNANA
22:00 11.6 6.9 73 LegendMM 16 13 16.1 98.51     LegendNANA
23:00 11.3 7.3 76 LegendMM 15 8 16.1 98.44     LegendNANA

Notes on Data Quality.

Legend

  • E = Estimated
  • M = Missing
  • NA = Not Available*
  • [empty] = Indicates an unobserved value
Date modified: